Location: Alpha Ridge Park
(39.3209°N, 76.9128°W)
Time: 01:01:51
(UTC-04:00)

S-56A Canister/Altair - Pass Details

Date: 23 May 2019
Orbit: 633 x 2499 km, 38.9° (Epoch: 17 June)

Event Time Altitude Azimuth Distance (km) Brightness Sun altitude
Rises 02:07:43 0° 231° (SW) 3,261 - -28.3°
Reaches altitude 10° 02:09:54 10° 225° (SW) 2,482 - -28.2°
Maximum altitude 02:15:33 50° 151° (SSE) 1,356 - -27.9°
Exits shadow 02:15:54 50° 141° (SE) 1,382 8.5 -27.9°
Drops below altitude 10° 02:23:56 10° 79° (E) 3,654 11.3 -27.3°
Sets 02:27:47 0° 75° (ENE) 4,955 12.2 -27.0°
